Miyakojima, Japan

6:00 AM JST on May 24, 2017 (GMT +0900)
Miyako

Weather History for ROMY - December, 2012

Change the Weather History Date:

Monday, December 3, 2012

  Actual Average Record
Temperature  
Mean Temperature 72 °F -  
Max Temperature 75 °F 69 °F 78 °F (1998)
Min Temperature 68 °F 63 °F 57 °F (2013)
Cooling Degree Days 6    
Growing Degree Days 22 (Base 50)    
Moisture  
Dew Point 63 °F    
Average Humidity 73    
Maximum Humidity 94    
Minimum Humidity 57    
Precipitation  
Precipitation 0.00 in - - ()
Sea Level Pressure  
Sea Level Pressure 29.96 in    
Wind  
Wind Speed 12 mph ()    
Max Wind Speed 20 mph    
Max Gust Speed 24 mph    
Visibility 9.1 miles    
Events Rain    
Averages and records for this station are not official NWS values.
T = Trace of Precipitation, MM = Missing Value Source: Averaged Metar Reports

Daily Weather History Graph

Daily Weather History Graph

Search for Another Location

Airport or City:

Trip Planner

Search our weather history database for the weather conditions in past years. The results will help you decide how hot, cold, wet, or windy it might be!

Date:

Astronomy

Dec. 03, 2012 Rise Set
Actual Time 7:07 AM JST 5:49 PM JST
Civil Twilight 6:43 AM JST 6:14 PM JST
Nautical Twilight 6:14 AM JST 6:42 PM JST
Astronomical Twilight 5:47 AM JST 7:10 PM JST
Moon 9:47 PM JST (12/3) 10:21 AM JST (12/3)
Length of Visible Light 11h 31m
Length of Day
10h 41m
Waning Gibbous, 83% of the Moon is Illuminated
Dec 3
Waning Gibbous
Dec 7
Last Quarter
Dec 13
New
Dec 20
First Quarter
Dec 28
Full

Hourly Weather History & Observations

Time (JST) Temp. Dew Point Humidity Pressure Visibility Wind Dir Wind Speed Gust Speed Precip Events Conditions
12:00 AM 70 °F 67 °F 87% 29.93 in - NNE 19.6 mph - -  
3:00 AM 71 °F 65 °F 76% 29.92 in 16 mi NE 16.1 mph - -   Partly Cloudy
6:00 AM 71 °F 66 °F 80% 29.93 in 16 mi NE 15.0 mph - -   Mostly Cloudy
6:30 AM 69.8 °F 64.4 °F 83% 29.92 in 6.2 mi NE 11.5 mph - N/A   Scattered Clouds
7:00 AM 69.8 °F 64.4 °F 83% 29.95 in 6.2 mi NE 10.4 mph - N/A   Scattered Clouds
8:00 AM 71.6 °F 64.4 °F 78% 29.95 in 6.2 mi NE 10.4 mph - N/A   Mostly Cloudy
9:00 AM 72 °F 66 °F 76% 29.96 in 16 mi ENE 12.7 mph - -   Scattered Clouds
9:00 AM 73.4 °F 64.4 °F 73% 29.95 in 6.2 mi NE 15.0 mph - N/A   Partly Cloudy
10:00 AM 71.6 °F 64.4 °F 78% 29.98 in 6.2 mi NE 12.7 mph - N/A Rain Light Rain Showers
11:00 AM 75.2 °F 64.4 °F 69% 29.98 in 6.2 mi NE 11.5 mph - N/A   Scattered Clouds
12:00 PM 72 °F 66 °F 75% 29.99 in 12 mi NNE 12.7 mph - - Rain Light Rain Showers
12:00 PM 73.4 °F 64.4 °F 73% 29.95 in 6.2 mi NE 11.5 mph - N/A   Mostly Cloudy
1:00 PM 75.2 °F 62.6 °F 65% 29.95 in 6.2 mi North 10.4 mph - N/A   Mostly Cloudy
2:00 PM 68.0 °F 66.2 °F 94% 29.95 in 6.2 mi NE 6.9 mph - N/A Rain Light Rain Showers
3:00 PM 72 °F 65 °F 72% 29.95 in 16 mi North 13.8 mph - - Rain Light Rain Showers
3:00 PM 71.6 °F 64.4 °F 78% 29.92 in 6.2 mi North 11.5 mph - N/A   Scattered Clouds
4:00 PM 71.6 °F 60.8 °F 69% 29.95 in 6.2 mi North 9.2 mph - N/A   Mostly Cloudy
5:00 PM 71.6 °F 60.8 °F 69% 29.95 in 6.2 mi North 12.7 mph - N/A   Mostly Cloudy
6:00 PM 71 °F 59 °F 57% 29.99 in 16 mi North 12.7 mph - -   Mostly Cloudy
6:00 PM 69.8 °F 55.4 °F 60% 29.95 in 6.2 mi North 12.7 mph 24.2 mph N/A   Mostly Cloudy
7:00 PM 69.8 °F 57.2 °F 64% 29.98 in 6.2 mi North 10.4 mph - N/A   Mostly Cloudy
8:00 PM 68.0 °F 55.4 °F 64% 29.98 in 6.2 mi North 8.1 mph - N/A   Scattered Clouds
9:00 PM 70 °F 58 °F 58% 30.03 in 16 mi NNE 9.2 mph - -   Mostly Cloudy